Location: Noordwijk
(52.2400°N, 4.4500°E)
Time: 08:50:27
(UTC+00:00)

DIWATA 2B (PO-101) - Visible Passes

Search period start: 04 March 2024 00:00
Search period end: 14 March 2024 00:00
Orbit: 576 x 590 km, 98.1° (Epoch: 03 March)

Date Brightness Start Highest point End Pass type
(mag) Time Alt. Az. Time Alt. Az. Time Alt. Az.
07 Mar ? 02:00:23 10° N 02:00:23 10° N 02:00:26 10° N visible
08 Mar ? 02:06:10 12° N 02:06:10 12° N 02:06:27 10° N visible
09 Mar ? 02:11:56 13° N 02:11:56 13° N 02:12:26 10° N visible
10 Mar ? 02:17:42 14° N 02:17:42 14° N 02:18:24 10° N visible
11 Mar ? 02:23:27 16° N 02:23:27 16° N 02:24:22 10° N visible
12 Mar ? 02:29:12 18° N 02:29:12 18° N 02:30:18 10° N visible
13 Mar ? 02:34:55 20° N 02:34:55 20° N 02:36:14 10° N visible
